Home   Weather   Fairfield Arms   Past weeks
Flag for USA

Past Weather in Fairfield Arms, South Carolina, USA — Yesterday and Last 2 Weeks

Now
84 °F

Clear.


Feels Like: 89 °F
Forecast: 92 / 74 °F
Wind: No wind

Location: Columbia Owens Downtown Airport

Current Time: Jul 13, 2020 at 9:32:50 pm

Latest Report: Jul 13, 2020 at 8:53 pm


Visibility: 10 mi

Pressure: 29.86 "Hg

Humidity: 65%

Dew Point: 71 °F

Location of Fairfield ArmsLocation

Past Weather in Fairfield Arms — Graph

°F

Fairfield Arms Temperature Yesterday

Maximum temperature yesterday: 94 °F (at 3:53 pm)
Minimum temperature yesterday: 72 °F (at 5:53 am)
Average temperature yesterday: 84 °F

High & Low Weather Summary for the Past Weeks

 TemperatureHumidityPressure
High96 °F (Jul 13, 4:53 pm)100% (Jul 7, 5:38 am)30.07 "Hg (Jul 7, 5:38 am)
Low72 °F (Jul 12, 5:53 am)28% (Jul 3, 4:53 pm)29.76 "Hg (Jul 12, 5:53 pm)
Average81 °F76%29.91 "Hg
* Reported Jun 28 7:53 pm — Jul 13 7:53 pm, Fairfield Arms. Weather by CustomWeather, © 2020

Note: Actual official high and low records may vary slightly from our data, if they occured in-between our weather recording intervals... More about our weather records

Fairfield Arms Weather History for the Previous 24 Hours

Scroll right to see more
 ConditionsComfort  
Time TempWeatherWind HumidityBarometerVisibility
7:53 pm
Mon, Jul 13
86 °FSunny.No wind59%29.85 "Hg10 mi
6:53 pm89 °FScattered clouds.3 mph55%29.85 "Hg10 mi
5:53 pm94 °FSunny.10 mph43%29.82 "Hg10 mi
4:53 pm96 °FBroken clouds.12 mph40%29.81 "Hg10 mi
3:53 pm94 °FPassing clouds.7 mph44%29.82 "Hg10 mi
2:53 pm95 °FPassing clouds.10 mph41%29.83 "Hg10 mi
1:53 pm92 °FPassing clouds.7 mph49%29.84 "Hg10 mi
12:53 pm92 °FScattered clouds.3 mph52%29.85 "Hg10 mi
11:53 am90 °FSunny.5 mph57%29.85 "Hg9 mi
10:53 am90 °FSunny.No wind52%29.85 "Hg10 mi
9:53 am84 °FSunny.No wind65%29.85 "Hg10 mi
8:53 am79 °FSunny.No wind79%29.85 "Hg9 mi
7:53 am77 °FPassing clouds.No wind85%29.83 "Hg9 mi
6:53 am76 °FPartly sunny.No wind88%29.82 "Hg9 mi
5:53 am76 °FClear.5 mph88%29.81 "Hg10 mi
4:53 am76 °FClear.No wind91%29.80 "Hg10 mi
3:53 am76 °FClear.No wind91%29.80 "Hg10 mi
2:53 am77 °FClear.No wind88%29.81 "Hg10 mi
1:53 am78 °FClear.No wind87%29.82 "Hg10 mi
12:53 am79 °FClear.No wind84%29.83 "Hg10 mi
11:53 pm
Sun, Jul 12
81 °FPassing clouds.No wind77%29.83 "Hg10 mi
10:53 pm82 °FClear.No wind77%29.82 "Hg10 mi
9:53 pm83 °FPassing clouds.No wind72%29.80 "Hg10 mi
Weather by CustomWeather, © 2020

See weather overview